Vavau International (NFTV)

Aerodrome — Elev 236
Tonga
S018.35.07.210 W173.57.42.180
Loading chart...

Current Weather

NFTV 210000Z 09012KT 9999 SCT018 30/24 Q1011

Published 42 minutes ago

Airport Activity

Loading chart...
Loading chart...

Positions

CallsignRadio Name / Freq / Voice Room / TypeFrequencyVoice RoomType
NZZO_FSS Auckland Radio
128.900
nzzo_fss
128.900nzzo_fss
NSFA_CTR Faleolo Control
123.800
nsfa_ctr
123.800nsfa_ctr
NFTV_TWR Vavau Tower
118.100
nftv_twr
118.100nftv_twr
UNICOM NZZO UNICOM
122.800
unicom_nzzo
122.800unicom_nzzo